Location: Milton Keynes
(52.0316°N, 0.7531°W)
Time: 23:16:48
(UTC+01:00)

ATV-4 - Visible Passes

Search period start: 21 October 2019 00:00
Search period end: 30 October 2019 23:00
Orbit: 308 x 318 km, 51.6° (Epoch: 02 November)

Date Brightness Start Highest point End Pass type
(mag) Time Alt. Az. Time Alt. Az. Time Alt. Az.
21 Oct 5.7 01:47:23 10° WNW 02:05:03 40° W 02:05:03 40° W visible
21 Oct 5.8 19:57:45 10° WSW 20:24:53 86° SSE 20:43:46 26° E visible
21 Oct 5.2 22:29:17 10° W 22:58:30 85° SSW 23:03:37 68° ESE visible
22 Oct 5.5 01:02:16 10° WNW 01:23:29 51° W 01:23:29 51° W visible
22 Oct 6.4 03:37:20 10° WNW 03:43:21 16° WNW 03:43:21 16° WNW visible
22 Oct 5.8 19:14:05 10° WSW 19:40:07 81° SSE 20:02:29 19° ENE visible
22 Oct 5.3 21:44:47 10° W 22:13:52 88° S 22:22:23 56° ESE visible
23 Oct 5.4 00:17:37 10° WNW 00:42:16 62° WSW 00:42:16 62° WSW visible
23 Oct 6.2 02:51:33 10° WNW 03:02:11 23° WNW 03:02:11 23° WNW visible
23 Oct 5.9 18:31:06 10° SW 18:55:56 76° SSE 19:21:34 12° ENE visible
23 Oct 5.5 21:00:47 10° W 21:29:26 89° S 21:41:30 44° E visible
23 Oct 5.2 23:33:22 10° WNW 00:01:26 73° SW 00:01:26 73° SW visible
24 Oct 6.0 02:06:47 10° WNW 02:21:22 31° W 02:21:22 31° W visible
24 Oct 6.0 17:48:50 10° SW 18:12:25 69° SE 18:39:21 10° ENE visible
24 Oct 5.7 20:17:21 10° WSW 20:45:16 89° S 21:00:59 35° E visible
24 Oct 5.2 22:49:32 10° WNW 23:18:32 80° SSW 23:20:57 75° SSE visible
25 Oct 5.8 01:22:41 10° WNW 01:40:55 40° W 01:40:55 40° W visible
25 Oct 5.8 19:34:31 10° WSW 20:01:29 86° SSE 20:20:49 26° E visible
25 Oct 5.2 22:06:07 10° W 22:35:20 85° SSW 22:40:49 66° ESE visible
26 Oct 5.6 00:39:06 10° WNW 01:00:50 51° W 01:00:50 51° W visible
26 Oct 6.4 03:14:32 10° WNW 03:20:50 16° WNW 03:20:50 16° WNW visible
26 Oct 5.9 18:52:20 10° WSW 19:18:11 82° SSE 19:41:01 18° ENE visible
26 Oct 5.3 21:23:09 10° W 21:52:14 88° S 22:01:03 55° ESE visible
26 Oct 5.4 23:55:59 10° WNW 00:21:06 62° WSW 00:21:06 62° WSW visible
27 Oct 6.2 01:30:10 10° WNW 01:41:09 23° W 01:41:09 23° W visible
27 Oct 5.9 17:10:47 10° SW 17:35:27 77° SSE 18:01:34 12° ENE visible
27 Oct 5.5 19:40:41 10° W 20:09:18 89° S 20:21:39 44° E visible
27 Oct 5.3 22:13:17 10° WNW 22:41:42 71° SW 22:41:44 71° SW visible
28 Oct 6.0 00:46:50 10° WNW 01:01:49 31° W 01:01:49 31° W visible
28 Oct 6.0 16:29:54 10° SW 16:53:21 71° SE 17:20:40 10° ENE visible
28 Oct 5.7 18:58:46 10° W 19:26:38 89° S 19:42:36 34° E visible
28 Oct 5.2 21:31:00 10° WNW 22:00:00 78° SSW 22:02:43 73° SSE visible
29 Oct 5.8 00:04:13 10° WNW 00:22:50 39° W 00:22:50 39° W visible
29 Oct 5.8 18:17:24 10° WSW 18:44:20 87° SSE 19:03:55 26° E visible
29 Oct 5.2 20:49:08 10° WNW 21:18:22 83° SSW 21:24:03 65° SE visible
29 Oct 5.6 23:22:09 10° WNW 23:44:13 49° WSW 23:44:13 49° WSW visible
30 Oct 6.5 01:58:23 10° WNW 02:04:22 15° WNW 02:04:22 15° WNW visible
30 Oct 5.9 17:36:38 10° WSW 18:02:30 84° SSE 18:25:34 18° E visible
30 Oct 5.3 20:07:43 10° W 20:36:48 87° SSW 20:45:45 55° ESE visible
